Theta_e
314 316 320 326 319 316 319 321 317 319 319 319 320 319 318 320 320 319 324 324 322 318 315 314 315 318 321 331 329 329 329 328 327 323 324 325 325 324 323 323 322 322 323 323 323 324 324 322 321
317 320 324 326 319 320 319 317 318 317 318 320 320 319 319 320 321 322 323 323 322 318 314 314 314 314 313 315 318 319 322 322 322 321 320 322 320 318 316 315 314 315 316 316 315 314 316 318 319
319 322 325 318 317 319 318 316 315 317 318 318 319 319 319 319 320 320 321 321 322 320 314 313 313 313 313 314 314 315 315 318 318 317 317 316 314 312 311 311 311 310 310 310 310 310 310 311 312
319 320 320 318 320 317 317 315 316 316 318 318 318 316 318 320 320 320 319 319 320 319 314 314 313 314 314 314 313 313 314 314 314 313 312 310 309 307 305 304 303 303 303 303 303 303 303 303 304
320 322 317 318 316 314 314 316 316 315 317 318 318 316 317 318 319 318 317 318 318 316 314 314 314 314 313 311 311 311 311 310 309 308 306 305 304 303 303 303 303 303 303 303 303 303 303 303 303
319 318 316 318 316 317 316 318 317 316 317 317 317 316 317 318 318 318 317 317 317 316 314 314 314 313 312 310 309 309 308 308 307 306 305 304 303 303 303 303 303 303 303 304 304 304 303 303 303
317 316 318 316 318 318 316 318 316 316 316 316 318 315 316 318 318 317 316 316 317 316 314 314 313 312 310 309 308 308 308 307 306 304 304 303 304 304 304 304 304 305 305 305 305 304 304 302 302
319 313 316 315 316 318 317 317 317 317 316 318 318 314 316 318 318 317 315 315 316 316 315 313 313 312 311 309 308 308 308 306 304 304 303 304 304 304 304 304 305 305 305 306 306 305 305 304 302
319 311 313 315 318 318 317 316 317 317 317 317 317 318 318 318 317 316 315 315 315 316 315 314 313 311 310 309 308 308 307 305 303 303 303 303 303 304 304 304 305 305 305 305 306 305 305 305 303
317 311 312 313 317 316 317 316 317 316 315 316 317 318 318 317 317 317 317 316 315 315 316 315 313 311 311 310 308 307 307 305 304 304 304 303 303 304 304 304 304 304 305 305 305 305 305 305 304
317 314 314 318 318 318 316 315 317 315 313 316 317 318 318 317 317 317 317 317 317 316 315 315 314 312 311 310 308 307 306 305 305 304 304 303 304 304 304 304 304 304 304 304 305 305 305 305 305
316 317 316 318 319 317 316 316 315 315 317 318 318 318 317 317 317 316 316 316 316 315 314 314 313 312 311 309 308 307 306 305 305 304 304 304 303 303 304 304 303 303 304 304 304 304 304 305 304
316 316 318 319 318 318 316 315 314 315 317 317 317 317 317 317 317 317 316 316 316 315 314 313 313 312 311 309 308 306 306 305 304 304 303 303 303 303 303 303 303 303 303 303 303 303 303 304 303
316 316 317 317 317 317 315 314 316 317 317 317 317 316 317 317 317 317 316 316 316 316 315 313 313 312 311 310 309 308 306 304 304 303 303 303 303 302 302 303 303 303 303 303 303 303 303 303 303
317 314 313 315 316 313 314 312 312 317 316 316 317 317 317 317 316 317 317 317 317 316 315 314 313 312 311 310 309 307 306 305 304 304 303 302 302 302 302 302 302 302 302 302 302 302 302 302 303
314 313 313 312 312 314 314 314 313 317 316 317 317 317 316 317 317 317 317 317 317 316 315 314 313 312 310 310 309 307 306 305 304 303 302 301 301 301 301 301 301 301 301 302 302 301 301 301 301
310 310 310 312 313 312 311 313 313 317 316 316 318 318 317 317 317 317 317 317 317 316 315 314 313 312 311 309 308 307 305 304 303 302 301 300 300 300 300 300 301 301 301 301 301 301 300 300 301
309 310 311 312 312 312 311 312 313 315 314 314 316 317 317 317 317 318 318 317 317 316 316 315 313 312 311 309 307 305 304 304 302 302 300 300 299 299 299 300 300 300 300 300 300 299 299 299 299
310 309 310 311 311 313 312 313 313 314 314 312 314 315 316 317 317 318 317 317 317 316 315 315 313 312 310 309 307 305 306 305 303 302 301 299 299 299 299 299 299 299 300 299 299 298 298 298 298
311 312 312 312 311 310 311 312 313 312 313 314 313 314 314 315 317 317 317 317 316 316 316 314 314 313 311 310 309 307 307 307 305 303 302 300 299 298 298 298 298 298 299 299 298 298 297 297 296
310 311 312 312 311 309 308 311 310 309 312 313 314 314 314 314 316 317 317 317 316 315 315 315 314 313 312 310 308 307 305 304 303 303 301 300 299 298 297 297 297 297 298 298 298 297 296 296 296
312 310 311 311 311 312 310 313 311 309 310 310 312 314 314 315 316 317 317 316 315 316 315 314 314 313 311 310 309 308 308 307 307 305 303 301 299 298 297 297 296 296 297 297 297 296 296 296 296
313 310 310 310 309 309 311 311 312 310 311 310 311 313 316 317 317 317 317 316 315 315 314 313 313 312 311 310 309 308 307 307 306 305 303 300 299 298 297 296 296 296 296 296 296 296 296 296 295
309 311 310 307 308 313 311 311 312 310 311 311 311 314 315 316 317 317 316 315 315 314 313 313 312 312 311 309 308 307 307 307 306 305 303 302 299 298 297 296 295 295 295 295 295 295 295 295 294
310 310 310 310 310 313 309 310 313 310 310 309 310 313 316 317 317 317 314 314 314 314 313 313 312 311 311 310 308 308 308 307 307 306 305 303 301 299 298 296 296 295 294 294 294 294 294 294 293
309 310 311 309 312 313 306 310 311 309 310 313 314 314 315 316 316 316 315 314 314 313 313 312 312 311 310 310 309 308 307 307 307 306 305 304 302 300 298 297 296 295 293 293 293 293 293 293 292
308 309 310 309 295 305 310 310 311 307 308 307 309 312 311 312 313 313 313 314 314 313 313 312 312 311 310 310 308 308 307 307 307 306 305 303 301 299 297 296 295 294 293 293 292 293 292 292 292
308 307 310 309 310 308 311 310 312 311 311 308 307 307 311 311 311 311 312 313 313 312 312 311 311 311 310 309 308 308 308 307 306 305 305 304 302 299 297 296 294 293 293 292 292 292 292 291 290
306 308 308 308 312 315 315 314 313 311 308 306 307 310 311 312 314 312 311 312 311 310 310 310 310 310 309 308 308 307 308 307 305 304 304 303 301 299 297 295 293 293 292 291 291 291 291 291 290
306 309 310 312 313 312 313 314 313 313 311 311 311 309 312 312 313 310 311 310 310 310 310 310 310 309 310 309 308 307 306 306 305 304 304 302 301 299 297 295 293 292 292 291 290 290 290 290 289
Wind_Speed
4 4 3 1 4 4 4 5 2 2 1 2 6 4 7 5 5 4 6 13 14 17 16 15 15 14 11 14 14 12 12 11 10 9 7 5 5 5 5 5 5 6 5 5 6 7 6 5 5
4 4 3 2 4 2 5 5 6 4 6 10 8 8 2 3 5 4 12 15 17 17 16 16 15 14 13 12 13 14 13 12 11 9 7 7 7 8 8 7 7 7 8 9 9 10 8 8 8
4 3 1 4 3 4 4 5 6 3 8 6 4 2 4 4 10 6 11 14 16 19 17 16 16 15 13 12 12 12 11 11 11 9 8 7 7 7 6 6 5 6 7 9 9 9 9 9 10
4 2 3 3 5 7 5 5 6 7 3 5 4 2 4 9 3 7 13 14 17 21 19 18 17 16 15 14 13 12 12 12 9 8 7 6 7 7 6 6 6 6 6 6 6 7 8 8 8
4 2 3 1 5 5 6 5 17 5 6 7 8 4 4 8 12 9 10 15 18 23 22 20 19 17 16 16 14 13 12 10 8 7 7 6 6 5 4 3 2 2 2 3 4 5 5 5 6
2 2 2 3 5 5 4 12 11 7 6 6 6 3 5 9 14 13 13 15 19 21 22 21 20 19 17 16 15 13 12 11 10 9 8 7 5 4 3 2 1 0 2 4 5 6 7 7 8
4 3 4 4 5 5 5 15 7 9 9 9 5 6 6 14 14 14 14 16 20 23 23 22 21 20 19 18 16 15 13 13 12 10 9 8 7 6 4 2 1 2 4 5 6 7 7 7 7
1 4 3 4 3 5 2 10 3 11 10 6 13 7 6 13 17 18 18 19 21 24 25 24 23 22 22 20 18 16 14 14 13 12 11 10 9 7 5 3 2 2 3 5 7 8 10 10 8
2 3 3 5 3 4 2 3 4 5 5 12 14 14 10 7 19 21 22 25 26 27 27 27 27 26 25 22 20 18 17 15 14 13 12 11 10 8 7 6 5 5 5 7 8 10 12 12 12
4 3 8 6 2 4 4 7 6 5 7 9 17 23 22 16 20 25 27 28 28 28 29 30 29 28 27 24 22 21 20 19 18 16 14 13 12 11 10 8 6 5 6 7 9 10 11 12 13
6 6 6 9 7 6 4 5 8 7 7 20 24 28 27 24 25 28 30 31 28 27 29 30 31 31 29 27 25 24 23 22 20 19 17 16 15 13 10 8 7 8 8 8 10 10 11 13 13
4 16 16 14 16 7 5 5 7 19 33 20 18 18 24 30 33 33 33 32 32 32 31 30 31 32 32 29 28 26 25 24 23 21 19 17 16 14 12 11 10 10 10 10 11 12 13 14 15
7 8 15 23 19 21 16 17 12 23 31 26 26 26 26 27 32 34 34 33 34 35 34 33 33 34 33 33 31 30 28 26 24 23 21 20 18 16 15 13 13 13 12 12 12 12 13 13 14
4 7 15 16 18 15 7 11 7 40 32 29 31 37 36 37 39 34 37 39 40 37 37 36 36 35 35 35 34 33 30 28 27 26 23 22 20 19 18 16 15 14 13 13 13 14 14 14 14
7 8 8 15 19 10 8 10 12 45 32 32 27 29 33 40 37 41 40 41 41 39 39 39 38 38 37 37 36 35 33 32 30 28 26 25 24 22 20 18 18 16 14 14 15 15 15 15 15
4 2 5 0 7 4 13 16 14 25 23 29 30 32 32 35 39 39 40 40 41 40 42 39 40 40 39 38 37 37 36 35 32 31 29 27 26 24 22 20 19 17 16 16 17 16 16 16 16
2 6 8 14 15 6 8 12 12 17 20 26 29 32 34 37 40 40 41 41 41 41 40 40 41 42 41 39 37 37 37 37 35 33 32 30 29 27 25 23 21 19 18 19 18 18 17 17 17
8 6 6 8 3 4 8 16 15 27 14 22 27 32 37 41 46 42 43 42 41 41 42 41 41 43 42 39 37 37 38 39 37 36 34 32 31 29 27 26 24 21 20 19 18 17 18 19 19
2 6 7 8 6 5 10 17 19 30 23 25 35 43 46 47 53 46 45 45 44 44 45 47 45 44 43 43 42 42 43 42 42 39 36 35 33 32 30 29 26 23 21 20 19 17 17 18 20
12 17 21 19 19 7 16 23 17 13 24 31 30 39 47 49 51 53 54 48 43 42 46 50 49 47 44 45 44 44 43 43 42 40 39 38 36 34 33 31 28 25 24 22 19 17 17 17 17
13 14 19 17 6 6 11 22 15 12 31 39 42 45 49 49 52 53 51 46 41 40 42 49 50 49 46 45 46 46 44 42 43 44 43 42 39 37 35 32 30 27 25 22 20 18 18 17 16
16 13 15 14 3 11 3 26 6 7 14 13 27 39 41 45 50 52 51 45 40 39 39 44 50 49 46 46 46 48 48 46 46 47 46 43 40 39 37 35 32 29 27 24 21 19 19 18 17
13 5 6 3 5 5 7 8 4 11 11 13 17 31 41 41 45 46 46 39 34 37 37 40 48 49 47 47 47 47 48 45 45 45 45 43 41 40 38 36 34 32 30 27 25 22 21 20 18
1 3 4 4 2 12 12 11 1 6 10 6 10 32 37 37 40 46 44 31 30 33 35 41 48 49 48 48 47 47 46 46 46 46 44 42 43 41 40 38 37 34 32 29 26 24 22 20 18
4 5 4 4 1 12 9 9 23 6 6 11 13 27 32 35 39 46 39 23 27 34 37 41 46 50 48 47 46 47 47 46 45 45 44 43 42 44 44 40 39 37 34 30 28 25 22 20 19
11 11 7 8 12 19 4 10 11 13 13 23 30 33 39 45 44 41 33 21 27 32 37 40 44 48 49 48 48 48 48 47 45 45 44 43 43 42 40 39 38 37 34 32 30 27 23 21 20
4 7 16 2 1 1 7 14 13 7 8 8 16 31 36 41 39 31 25 25 26 27 33 37 42 47 47 48 48 50 50 50 48 46 43 43 42 41 39 38 38 37 36 34 31 28 24 22 22
7 4 2 2 3 7 9 6 14 16 14 10 10 16 27 29 28 31 27 26 23 25 30 33 39 44 45 47 49 50 51 51 51 50 47 43 42 41 39 38 39 38 37 35 32 29 26 24 23
1 4 4 3 5 14 18 15 28 16 9 7 11 20 18 25 30 22 21 20 21 22 23 27 32 41 45 47 48 49 51 53 53 53 50 48 45 41 39 38 40 41 39 36 34 30 28 26 25
4 12 12 12 13 11 17 19 27 32 25 19 26 30 31 29 32 23 19 16 19 19 22 24 27 35 38 43 49 49 50 50 54 54 52 51 48 44 39 38 40 40 39 37 35 32 30 26 25
Wind_Direction
183 203 217 358 39 58 272 267 217 169 121 141 141 166 176 131 164 207 180 178 184 190 194 192 196 199 189 179 187 189 194 198 205 197 197 198 218 239 228 230 240 248 260 277 283 280 292 295 290
172 193 174 90 89 27 269 256 201 207 161 133 123 118 121 203 177 193 174 185 193 195 192 189 192 198 201 196 195 199 202 197 204 213 213 222 238 251 257 254 248 252 258 259 263 271 275 270 269
175 181 152 104 123 197 229 237 206 201 167 181 146 175 179 210 200 209 199 203 192 192 194 194 193 197 201 203 203 207 210 213 218 225 231 238 237 241 246 251 255 254 254 266 273 273 269 265 265
171 175 72 95 229 258 237 240 190 154 184 183 158 203 234 202 193 199 205 199 192 191 195 194 197 199 205 210 212 211 211 224 226 226 224 224 231 239 250 257 259 260 270 275 277 282 287 282 270
168 134 68 309 258 256 248 234 178 173 184 188 179 242 234 227 218 206 210 203 199 194 197 199 202 205 208 209 208 210 218 222 228 229 235 239 240 242 232 230 238 268 293 309 323 325 325 319 307
130 103 81 230 246 248 249 192 177 195 200 178 192 184 243 227 220 219 217 209 204 205 204 205 207 210 210 205 204 206 210 213 218 219 224 230 229 224 216 205 187 343 350 348 344 340 338 337 334
126 97 220 232 254 290 223 188 196 200 188 212 203 175 238 225 211 216 219 214 209 209 214 214 214 211 208 208 207 207 208 207 209 208 204 202 203 207 212 226 308 349 351 345 341 336 334 335 336
218 102 281 255 247 269 250 178 236 199 222 216 202 221 249 245 207 210 216 217 215 215 216 217 218 215 216 215 214 215 212 211 205 201 201 203 205 206 210 217 247 300 315 318 326 329 330 332 329
208 61 251 251 219 265 201 238 225 234 227 204 211 240 246 238 207 209 215 217 219 220 220 220 219 218 216 217 217 215 216 214 209 206 207 210 211 212 216 226 246 275 300 313 326 328 328 326 323
165 152 226 220 238 240 243 223 252 218 227 231 234 237 243 239 218 217 221 225 225 225 223 224 223 222 223 220 219 217 216 214 213 214 216 217 219 222 228 242 261 278 293 305 310 312 317 318 313
190 215 223 266 268 267 242 245 237 220 248 236 238 247 242 238 231 230 233 236 243 234 231 229 228 226 226 224 220 218 218 217 217 216 217 218 223 228 237 248 263 273 280 285 292 301 304 308 309
214 241 236 266 282 277 236 251 242 225 253 264 267 271 256 244 241 242 241 244 243 239 237 235 232 229 227 224 224 223 221 220 219 220 220 224 227 232 238 243 249 261 269 277 286 295 301 308 310
226 249 247 252 257 272 273 252 249 259 264 259 259 255 249 248 251 250 250 249 243 242 240 237 234 232 230 227 226 224 223 224 223 223 223 226 230 234 239 243 251 258 266 275 284 293 302 308 309
279 265 269 271 256 262 224 271 239 272 276 264 256 252 251 252 255 253 248 248 245 244 243 240 238 236 232 232 229 228 226 224 225 227 229 231 233 235 238 243 250 255 259 268 277 285 294 303 307
291 306 306 256 256 233 213 284 226 263 267 273 262 254 252 252 250 252 256 255 255 252 245 242 240 238 235 233 231 228 227 227 227 230 231 233 235 237 239 244 249 254 262 269 277 284 293 301 309
311 333 312 301 148 227 162 263 252 267 257 260 264 263 254 252 253 256 255 253 254 250 247 244 240 239 236 234 231 230 228 229 229 230 232 233 234 236 239 243 248 252 259 267 274 281 289 299 310
282 244 225 293 200 162 183 246 270 256 240 252 262 269 268 259 252 252 255 254 253 253 250 246 241 238 236 233 231 231 230 231 230 230 232 233 233 235 238 241 245 250 257 264 272 279 288 297 306
222 224 253 244 242 186 222 248 272 269 238 247 262 265 266 266 259 255 256 259 255 252 252 247 244 238 233 231 229 230 230 232 232 232 232 233 234 235 238 240 243 247 254 261 268 277 286 295 303
206 228 243 256 247 225 230 236 248 265 269 259 264 265 262 260 266 264 261 259 257 251 247 243 238 236 229 225 225 226 229 229 230 231 233 233 234 236 237 239 241 244 252 259 266 276 288 298 305
243 257 262 270 265 214 260 259 249 250 262 261 255 263 263 264 270 268 266 266 261 256 251 242 237 236 231 228 228 230 232 232 234 235 235 235 235 235 236 238 240 241 246 253 263 273 285 293 303
229 233 253 256 301 249 289 271 251 244 250 262 263 257 263 263 267 268 268 269 265 252 246 243 238 235 230 227 225 228 231 233 233 233 234 234 234 234 236 237 239 241 245 250 258 268 277 286 297
257 227 254 261 283 274 126 294 196 231 244 243 253 261 257 264 266 267 268 267 260 257 250 241 236 233 229 228 228 228 230 229 231 233 234 234 233 235 236 237 238 240 244 248 253 259 268 277 286
253 167 233 218 215 337 182 266 161 203 250 247 253 254 267 273 272 272 269 266 261 252 248 242 233 231 228 229 231 230 232 234 236 237 236 236 236 236 237 238 238 239 241 244 248 255 263 271 278
95 59 37 65 122 265 203 210 97 179 213 241 252 258 265 269 272 274 276 263 252 242 239 238 230 228 227 229 231 232 232 235 235 236 237 236 237 237 237 237 238 238 239 243 248 253 259 266 272
132 92 298 320 9 255 191 216 251 274 216 215 238 258 263 270 267 270 274 254 230 230 231 232 229 226 225 229 231 231 232 235 237 238 239 238 236 235 236 235 236 236 238 240 243 249 257 266 273
207 189 182 206 253 270 109 249 265 220 238 241 249 264 270 268 271 273 267 246 246 231 233 233 228 226 227 230 231 231 231 234 236 239 239 241 242 241 240 238 237 237 237 237 239 244 250 260 269
175 177 233 317 108 5 248 275 287 229 269 310 282 285 275 275 277 272 254 240 244 231 232 235 232 230 230 234 232 232 232 234 235 238 239 241 243 243 241 241 240 237 236 237 239 242 246 253 261
186 165 115 184 206 248 268 250 260 284 285 290 295 304 320 322 305 274 251 241 235 237 236 236 235 238 238 237 236 236 237 238 238 239 240 240 244 243 240 239 238 235 236 237 238 240 244 249 255
184 247 229 184 197 246 261 264 278 278 274 261 298 299 323 327 317 306 264 248 244 241 245 242 241 241 239 241 241 241 242 242 242 243 244 243 244 245 241 237 235 235 236 237 236 238 243 248 254
271 265 242 237 246 235 254 257 263 269 270 272 288 291 295 309 311 285 262 251 251 255 252 255 253 247 247 244 243 244 245 246 246 246 246 246 245 243 241 236 234 235 237 237 238 239 243 246 252